Location: Gazon
(48.1318°N, 1.2708°W)
Time: 22:21:20
(UTC+00:00)

Cosmos 1025 Rocket - Pass Details

Date: 18 September 2020
Orbit: 595 x 617 km, 82.5° (Epoch: 25 October)

Event Time Altitude Azimuth Distance (km) Brightness Sun altitude
Rises 18:45:25 0° 360° (N) 2,885 6.6 -6.6°
Reaches altitude 10° 18:47:58 10° 13° (NNE) 1,979 5.6 -7.0°
Maximum altitude 18:51:38 26° 70° (ENE) 1,231 4.1 -7.6°
Drops below altitude 10° 18:55:18 10° 127° (SE) 1,975 5.1 -8.2°
Enters shadow 18:56:07 - 133° (SE) 2,250 5.4 -8.4°
